Flag for Canada Weather past 2 weeks in Pictou County, Nova Scotia, Canada

Now
58 °F

Cool.


Feels Like: 54 °F
Forecast: 55 / 61 °F
Wind: 20 mph from South

Location: Caribou Point

Current Time: May 26, 2015 at 1:13:23 PM

Latest Report: May 26, 2015 at 12:00 PM


Visibility: N/A

Pressure: 30.08 "Hg

Humidity: 94%

Dew point: 56 °F

Location of Pictou CountyLocation

Historic Weather in Pictou County — Graph

°F

Pictou County temperature yesterday

Maximum temperature yesterday: 82 °F (at 4:00 PM)
Minimum temperature yesterday: 50 °F (at 3:00 AM)
Average temperature yesterday: 64 °F

Past Weeks' High & Low Weather Summary

 TemperatureHumidityPressure
High82 °F (May 25, 4:00 PM)100% (May 12, 9:00 PM)30.32 "Hg (May 12, 9:00 PM)
Low35 °F (May 14, 3:00 AM)22% (May 25, 5:00 PM)29.43 "Hg (May 20, 6:00 PM)
Average51 °F70%29.99 "Hg
* Reported May 11 12:00 Noon — May 26 12:00 Noon, Pictou County, Weather by CustomWeather, © 2015

Note: Actual official high and low records may vary slightly from our data, if they occured in-between our weather recording intervals... More about our weather records

Advertising

Pictou County weather history for previous 24 hours

 ConditionsComfort  
Time TempWeatherWind HumidityBarometerVisibility
12:00 PM
Tue, May 26
58 °FCool.20 mph94%30.08 "HgN/A
11:00 AM57 °FCool.13 mph94%30.11 "HgN/A
10:00 AM57 °FCool.7 mph88%30.13 "HgN/A
9:00 AM58 °FCool.10 mph80%30.16 "HgN/A
8:00 AM58 °FCool.7 mph77%30.16 "HgN/A
7:00 AM56 °FCool.8 mph79%30.15 "HgN/A
6:00 AM56 °FCool.7 mph76%30.13 "HgN/A
5:00 AM58 °FCool.7 mph63%30.11 "HgN/A
4:00 AM63 °FMild.8 mph60%30.11 "HgN/A
3:00 AM64 °FMild.7 mph58%30.11 "HgN/A
2:00 AM62 °FRefreshingly cool.13 mph58%30.11 "HgN/A
1:00 AM60 °FCool.8 mph61%30.10 "HgN/A
12:00 AM61 °FRefreshingly cool.9 mph55%30.10 "HgN/A
11:00 PM
Mon, May 25
62 °FRefreshingly cool.8 mph48%30.10 "HgN/A
10:00 PM69 °FMild.6 mph37%30.10 "HgN/A
9:00 PM73 °FMild.9 mph29%30.07 "HgN/A
8:00 PM78 °FPleasantly warm.13 mph24%30.06 "HgN/A
7:00 PM79 °FPleasantly warm.16 mph23%30.05 "HgN/A
6:00 PM80 °FPleasantly warm.16 mph23%30.03 "HgN/A
5:00 PM82 °FPleasantly warm.16 mph22%30.03 "HgN/A
4:00 PM82 °FWarm.14 mphN/AN/AN/A
3:00 PM63 °FMild.6 mph58%30.04 "HgN/A
2:00 PM65 °FMild.2 mph51%30.08 "HgN/A
1:00 PM62 °FRefreshingly cool.3 mph57%30.10 "HgN/A
Weather by CustomWeather, © 2015

See weather overviewHow to use our weather pages